TimeCDT,TemperatureF,Dew PointF,Humidity,Sea Level PressureIn,VisibilityMPH,Wind Direction,Wind SpeedMPH,Gust SpeedMPH,PrecipitationIn,Events,Conditions,WindDirDegrees,DateUTC
12:41 AM,80.1,72.0,76,30.01,10.0,SSE,5.8,-,N/A,,Mostly Cloudy,160,2013-07-08 05:41:00
12:51 AM,80.1,73.0,79,29.96,10.0,SE,6.9,-,N/A,,Overcast,140,2013-07-08 05:51:00
1:18 AM,80.1,73.0,79,30.01,10.0,Variable,6.9,-,N/A,,Partly Cloudy,0,2013-07-08 06:18:00
1:51 AM,79.0,73.0,82,29.96,10.0,SSE,3.5,-,N/A,,Scattered Clouds,150,2013-07-08 06:51:00
2:51 AM,79.0,72.0,79,29.97,10.0,SSE,8.1,-,N/A,,Overcast,150,2013-07-08 07:51:00
2:59 AM,79.0,72.0,79,30.02,10.0,Variable,6.9,-,N/A,,Overcast,0,2013-07-08 07:59:00
3:51 AM,78.1,72.0,81,29.99,10.0,Variable,4.6,-,N/A,,Overcast,0,2013-07-08 08:51:00
4:51 AM,78.1,72.0,81,30.00,10.0,South,5.8,-,N/A,,Overcast,170,2013-07-08 09:51:00
5:51 AM,77.0,72.0,84,30.01,10.0,SSE,5.8,-,N/A,,Scattered Clouds,150,2013-07-08 10:51:00
6:51 AM,77.0,72.0,84,30.04,10.0,Variable,3.5,-,N/A,,Mostly Cloudy,0,2013-07-08 11:51:00
7:51 AM,79.0,72.0,79,30.04,10.0,Variable,3.5,-,N/A,,Scattered Clouds,0,2013-07-08 12:51:00
8:18 AM,80.1,72.0,76,30.10,10.0,Variable,4.6,-,N/A,,Mostly Cloudy,0,2013-07-08 13:18:00
8:44 AM,81.0,72.0,74,30.11,10.0,SSW,6.9,-,N/A,,Scattered Clouds,200,2013-07-08 13:44:00
8:51 AM,81.0,71.1,72,30.07,10.0,South,5.8,-,N/A,,Scattered Clouds,180,2013-07-08 13:51:00
9:18 AM,82.9,71.1,67,30.11,10.0,South,6.9,-,N/A,,Mostly Cloudy,190,2013-07-08 14:18:00
9:51 AM,82.0,72.0,71,30.07,10.0,SSW,6.9,-,N/A,,Overcast,210,2013-07-08 14:51:00
10:33 AM,82.9,72.0,69,30.12,10.0,Variable,6.9,-,N/A,,Mostly Cloudy,0,2013-07-08 15:33:00
10:51 AM,82.9,71.1,67,30.08,10.0,South,9.2,-,N/A,,Mostly Cloudy,190,2013-07-08 15:51:00
11:06 AM,78.1,75.0,90,30.13,1.8,Variable,5.8,-,0.02,Rain,Heavy Rain,0,2013-07-08 16:06:00
11:18 AM,77.0,73.9,90,30.13,3.0,SSW,4.6,-,0.06,Rain,Light Rain,200,2013-07-08 16:18:00
11:51 AM,79.0,75.9,90,30.09,7.0,Variable,5.8,-,0.07,Rain,Light Rain,0,2013-07-08 16:51:00
12:51 PM,84.0,75.0,74,30.08,10.0,South,9.2,-,0.00,,Mostly Cloudy,170,2013-07-08 17:51:00
1:07 PM,84.0,73.9,72,30.12,10.0,SE,8.1,-,N/A,,Mostly Cloudy,140,2013-07-08 18:07:00
1:21 PM,84.0,73.0,69,30.12,10.0,SSE,9.2,-,N/A,,Scattered Clouds,150,2013-07-08 18:21:00
1:51 PM,88.0,69.1,53,30.07,10.0,Variable,6.9,-,N/A,,Partly Cloudy,0,2013-07-08 18:51:00
2:51 PM,86.0,69.1,57,30.06,10.0,South,8.1,18.4,N/A,,Clear,170,2013-07-08 19:51:00
3:51 PM,90.0,69.1,50,30.05,10.0,South,6.9,-,N/A,,Partly Cloudy,190,2013-07-08 20:51:00
4:51 PM,87.1,69.1,55,30.03,10.0,Variable,4.6,-,N/A,,Partly Cloudy,0,2013-07-08 21:51:00
5:51 PM,89.1,64.9,45,30.02,10.0,Variable,3.5,-,N/A,,Clear,0,2013-07-08 22:51:00
6:51 PM,89.1,63.0,42,30.00,10.0,SSE,8.1,-,N/A,,Clear,150,2013-07-08 23:51:00
7:51 PM,87.1,66.0,49,30.01,10.0,SSE,8.1,-,N/A,,Clear,160,2013-07-09 00:51:00
8:51 PM,86.0,66.9,53,30.02,10.0,Variable,5.8,-,N/A,,Clear,0,2013-07-09 01:51:00
9:51 PM,84.0,70.0,63,30.05,10.0,SSE,8.1,17.3,N/A,,Clear,160,2013-07-09 02:51:00
10:51 PM,82.9,72.0,69,30.08,10.0,SSE,8.1,19.6,N/A,,Clear,150,2013-07-09 03:51:00
11:51 PM,81.0,72.0,74,30.09,10.0,South,5.8,-,N/A,,Scattered Clouds,180,2013-07-09 04:51:00